Location: Unspecified
(35.6961°N, 0.0000°E)
Time: 10:30:35
(UTC+00:00)

Altair - Pass Details

Date: 28 May 2019
Orbit: 1501 x 1683 km, 47.2° (Epoch: 16 June)

Event Time Altitude Azimuth Distance (km) Brightness Sun altitude
Rises 01:07:39 0° 213° (SSW) 4,823 - -30.5°
Reaches altitude 10° 01:10:49 10° 208° (SSW) 3,861 - -30.3°
Exits shadow 01:18:36 49° 166° (SSE) 2,055 7.7 -29.7°
Maximum altitude 01:20:22 54° 135° (SE) 1,964 7.8 -29.6°
Drops below altitude 10° 01:30:07 10° 62° (ENE) 3,948 10.3 -28.8°
Sets 01:33:22 0° 58° (ENE) 4,938 11.0 -28.5°
